RH
80 80 80 80 81 81 81 81 82 81 82 81 82 84 88 90 87 52 14 19 24 56 52 39 37 35 38 39 42 46 54 60 50 57 48 47 46 42 43 50 48 47 51 53 63
80 80 80 80 80 80 81 81 82 82 82 81 83 85 88 90 54 24 28 48 56 65 20 16 22 32 34 41 44 48 55 50 45 43 44 47 48 44 48 52 58 59 62 63 70
80 80 80 80 80 79 80 81 81 82 82 83 84 86 88 81 24 11 62 57 69 52 16 14 15 18 28 33 40 50 51 43 40 41 41 46 49 39 44 56 48 53 69 76 73
80 79 80 80 80 79 79 80 81 82 80 84 84 86 88 60 17 14 72 65 69 27 13 16 18 26 29 30 30 40 38 41 39 45 43 48 44 44 44 42 40 44 59 74 73
80 79 79 79 81 79 79 79 81 82 84 83 84 86 62 16 11 12 66 66 38 22 13 15 24 27 27 28 27 36 32 33 40 43 45 43 46 45 47 42 44 53 62 65 63
80 79 79 79 78 80 79 79 81 82 84 82 84 85 32 12 13 36 46 38 22 16 14 13 18 24 26 29 30 23 31 32 37 45 43 47 47 48 45 46 52 57 60 60 61
80 80 79 79 78 78 79 80 82 85 84 83 83 68 25 9 16 18 29 21 20 13 13 12 13 20 25 23 23 28 33 30 37 41 46 47 54 51 48 48 52 53 57 59 59
80 82 79 79 78 78 80 82 86 84 84 84 81 56 9 7 14 17 16 14 14 13 12 16 20 22 23 21 23 33 35 30 25 44 46 44 52 45 48 51 52 52 55 60 56
81 83 81 81 78 80 82 84 86 82 81 82 58 39 12 25 14 12 12 13 12 13 13 14 17 20 20 21 27 34 29 28 27 39 46 49 47 47 54 50 50 52 51 57 55
85 85 84 79 80 81 85 87 83 82 73 64 49 33 21 14 14 13 13 14 16 16 16 17 18 18 17 19 28 28 23 22 25 24 37 41 48 45 57 57 52 51 49 55 55
84 86 86 85 82 83 82 68 33 32 52 17 15 20 19 15 12 11 13 12 14 17 20 19 18 21 19 19 20 21 25 23 22 20 33 40 47 49 50 56 58 50 49 46 50
85 87 86 80 82 83 78 38 20 24 24 29 26 23 20 17 13 11 13 13 16 20 20 21 21 17 19 17 18 18 20 20 19 38 42 48 46 44 47 53 50 48 46 47 45
85 87 86 83 82 84 67 42 36 30 26 26 28 22 18 16 13 12 11 16 17 21 21 22 17 17 17 16 17 15 18 20 20 26 49 42 36 38 47 54 54 48 43 41 45
85 84 85 85 78 64 41 38 35 34 25 22 24 18 18 16 14 12 11 12 15 19 21 19 16 16 15 16 15 17 16 18 19 26 28 39 34 40 43 45 56 50 48 42 48
86 83 84 87 64 50 36 45 36 24 29 21 20 15 15 14 12 12 11 12 16 18 18 17 16 16 16 14 15 15 15 18 26 31 32 32 32 21 45 32 33 49 48 40 42
87 87 83 85 80 54 50 32 24 27 32 21 17 18 14 13 14 13 12 12 15 17 17 16 14 14 14 14 14 14 14 18 24 25 21 35 28 17 22 30 32 34 44 43 38
91 92 85 66 40 50 44 25 24 27 20 20 17 15 14 14 15 14 15 16 19 22 22 18 15 14 14 15 15 15 16 20 21 20 19 30 31 20 24 28 32 33 34 43 42
90 87 84 67 60 53 28 22 30 23 22 16 13 13 14 12 13 16 18 19 18 18 19 21 18 15 15 14 14 17 14 17 28 22 19 26 20 18 21 28 33 35 33 36 40
90 78 64 50 59 53 23 23 25 23 19 17 13 16 15 13 12 17 18 17 16 17 22 22 20 14 14 12 13 18 17 14 17 20 18 18 17 17 27 36 38 29 33 35 36
71 56 44 50 50 28 24 37 26 20 18 17 17 15 16 15 15 18 20 18 18 17 14 19 24 16 13 11 13 13 14 14 17 25 24 19 23 21 45 57 50 41 36 33 37
58 38 43 47 38 27 26 25 23 18 20 19 19 18 19 22 17 19 21 22 26 26 18 16 18 19 17 16 16 15 14 18 15 18 20 22 21 46 59 60 58 53 52 49 43
46 37 43 41 29 37 25 24 35 21 22 19 20 20 21 24 25 26 29 28 26 23 19 17 17 23 18 16 16 15 18 15 17 28 23 22 23 50 60 59 59 57 58 55 58
50 42 38 30 26 27 28 24 24 22 25 24 25 25 28 31 33 30 29 27 24 24 27 18 21 24 19 17 19 21 23 21 20 20 34 24 22 46 53 57 59 59 59 58 61
47 40 38 34 36 31 35 30 24 21 23 27 27 26 28 31 32 34 29 26 25 26 56 38 20 24 21 24 24 28 25 23 19 23 24 21 22 40 58 62 61 58 60 58 60
48 50 50 37 37 40 36 30 27 27 23 24 26 28 28 31 32 32 28 22 24 39 26 20 26 32 28 28 26 31 36 28 24 31 29 30 29 63 63 62 61 56 53 53 54
52 51 47 47 52 38 39 29 27 25 26 25 27 26 27 29 26 27 26 28 25 28 24 24 27 38 32 27 24 40 47 48 53 57 54 54 55 50 46 47 50 57 56 54 56
63 59 58 59 38 29 30 29 27 28 25 25 24 26 25 24 25 24 23 25 26 28 27 28 28 31 24 28 29 31 50 51 53 61 64 54 61 49 48 50 50 48 57 54 53
Wind_Speed
10 10 9 8 8 8 7 7 7 7 8 9 10 11 12 12 13 2 6 4 5 4 6 6 3 3 1 0 1 1 0 1 1 4 2 2 3 3 2 9 4 4 1 3 17
10 10 9 9 8 7 7 7 7 7 8 9 10 11 11 11 3 8 8 4 4 11 5 3 2 3 1 1 2 2 1 2 2 3 2 2 5 5 5 7 4 3 5 14 17
11 10 9 9 8 8 7 7 7 7 8 9 10 10 10 8 4 3 7 9 10 8 3 2 2 2 1 1 3 3 3 2 4 8 5 3 5 4 5 6 7 8 12 15 16
12 11 9 9 9 8 8 7 7 7 7 8 10 10 10 3 4 2 8 10 10 4 4 4 2 1 2 4 1 4 7 5 5 5 5 5 3 5 10 5 3 6 15 17 17
12 11 10 9 8 8 8 7 7 7 7 8 9 9 3 2 7 4 5 11 10 7 5 3 2 1 3 4 7 4 7 6 7 7 6 4 9 6 8 7 5 13 16 15 15
13 11 10 9 8 7 7 7 7 7 7 7 8 8 2 5 2 5 7 10 9 6 5 4 1 1 2 3 3 6 10 12 4 4 4 6 5 4 3 8 11 14 15 14 14
13 12 10 9 8 7 7 7 7 7 7 6 5 3 2 8 4 4 4 4 6 3 4 2 2 3 2 6 4 6 6 6 3 2 3 4 7 11 6 12 13 13 13 14 14
14 12 11 10 8 7 7 7 8 6 5 5 3 2 7 1 2 3 3 3 2 2 1 0 2 1 3 5 4 4 1 9 5 1 0 4 7 4 9 13 13 13 13 13 15
14 12 10 9 8 6 6 7 8 4 3 3 2 2 6 5 4 4 6 3 4 3 1 1 0 2 0 4 5 5 8 14 8 2 2 7 14 1 9 12 13 13 13 12 12
13 11 10 9 6 5 5 5 2 1 3 3 2 4 4 1 2 4 4 5 3 5 4 1 2 1 1 4 6 10 11 12 12 5 8 12 21 9 10 13 14 14 13 12 13
14 11 8 7 5 4 2 4 4 4 3 6 2 3 2 5 2 3 4 6 2 2 3 2 4 7 6 3 5 8 9 13 19 8 8 9 16 15 12 14 14 14 13 15 16
14 11 7 6 3 4 3 3 1 3 2 8 5 7 5 2 1 4 8 5 3 4 3 4 10 8 5 4 6 8 12 11 9 3 5 10 18 11 6 15 16 15 15 16 13
14 10 5 4 6 4 3 5 4 1 2 1 4 4 3 8 4 9 10 5 3 4 2 5 5 2 5 10 9 7 7 6 10 8 2 14 4 6 3 6 8 12 13 14 14
14 10 2 4 3 4 5 1 5 4 1 3 2 2 4 3 3 3 7 4 2 6 3 7 5 8 6 7 6 7 5 6 11 8 6 7 6 3 7 5 8 8 12 14 14
13 7 3 8 2 5 3 5 3 4 3 3 4 3 3 4 9 4 2 3 7 5 5 3 3 6 8 6 7 4 3 5 4 5 4 3 3 4 5 5 1 10 12 14 16
14 6 7 5 3 5 5 4 4 4 4 4 4 5 6 1 2 5 5 3 1 4 6 13 2 6 7 3 9 4 9 1 2 3 4 2 5 7 7 8 9 1 12 14 16
17 8 10 4 2 3 2 2 3 1 1 6 4 6 5 5 4 7 12 11 7 5 4 5 8 3 6 8 2 7 5 3 3 2 3 2 4 6 12 11 9 9 3 14 14
8 13 6 4 3 4 3 2 1 1 1 2 4 8 6 6 3 5 9 10 7 6 4 4 3 4 5 5 2 4 4 4 2 2 5 2 4 5 11 12 9 7 4 3 12
6 2 3 3 8 3 2 2 1 2 2 1 5 5 4 4 2 4 8 8 6 14 7 4 4 1 4 2 4 5 4 4 5 1 4 3 4 3 11 17 17 11 6 4 6
2 2 2 3 8 2 0 2 3 4 3 2 3 2 8 6 7 7 8 2 3 10 14 1 6 1 2 4 4 4 8 3 0 3 3 2 4 5 18 19 17 17 15 11 5
2 2 5 2 4 1 2 3 5 4 5 3 3 4 3 4 4 4 4 3 3 1 10 5 4 2 4 3 2 5 5 4 2 3 3 4 2 5 7 11 15 14 16 16 14
2 2 3 3 2 1 2 2 2 3 3 3 2 3 3 2 3 3 3 2 7 2 6 5 3 5 2 2 4 1 2 4 5 4 1 3 1 4 6 9 13 14 14 15 16
2 3 3 4 2 2 2 3 3 6 4 4 2 4 3 3 3 1 3 3 7 2 1 6 4 4 5 5 3 2 2 3 4 2 6 4 1 5 8 9 13 15 15 15 16
1 3 2 1 2 1 2 2 2 3 3 3 3 2 3 3 5 4 2 2 5 4 5 2 3 6 8 3 2 3 1 1 5 5 4 6 7 0 12 14 15 16 15 15 15
5 3 3 3 2 1 1 2 2 2 3 6 4 6 3 3 2 2 1 2 2 6 3 2 5 3 3 1 1 3 3 2 6 2 6 4 4 7 10 11 11 10 13 15 16
4 3 2 2 1 4 0 1 1 1 3 3 5 3 3 3 2 1 0 1 2 1 2 1 3 3 4 1 1 3 4 2 4 2 2 2 3 8 9 8 9 9 12 15 15
3 0 3 2 1 3 2 1 1 1 3 5 3 4 3 3 2 3 3 2 3 4 1 2 5 4 3 2 2 5 2 4 3 1 2 4 4 9 11 12 13 11 8 12 15
Wind_Direction
345 342 340 337 336 331 326 322 318 317 320 317 319 317 321 323 309 209 253 219 158 168 166 133 159 139 165 242 179 134 293 307 223 192 280 207 220 156 140 152 182 161 169 99 144
342 339 335 331 327 326 324 315 314 313 316 315 313 316 323 328 294 255 253 220 220 158 154 158 145 178 205 131 168 235 287 271 225 227 289 213 224 188 168 162 180 166 94 133 149
339 335 330 324 321 320 319 315 308 310 314 314 312 317 321 317 273 244 7 194 166 177 127 144 157 259 359 260 182 165 260 271 265 237 236 244 218 226 206 203 208 201 154 158 163
340 334 328 321 318 317 315 314 306 307 306 311 313 319 316 258 188 14 332 190 161 172 141 142 139 206 315 330 222 271 258 255 278 214 192 221 212 208 218 247 194 173 157 162 172
340 335 328 320 316 313 311 309 303 302 301 306 306 320 281 212 254 338 34 133 140 160 178 171 178 165 333 322 319 227 310 307 280 245 229 239 234 231 220 200 159 142 155 170 180
340 334 327 318 311 308 308 306 301 297 297 297 305 312 243 236 65 5 110 144 149 147 164 190 217 242 287 299 300 310 300 302 308 260 252 230 241 209 185 159 154 159 162 172 187
339 334 327 316 308 303 303 303 295 297 294 294 302 289 226 242 98 13 127 161 167 156 149 199 237 256 320 307 335 312 322 332 32 278 254 223 239 234 177 169 161 171 171 177 191
336 332 325 314 303 297 296 296 293 294 288 268 276 241 250 240 332 259 184 120 149 185 219 138 181 264 272 311 321 344 30 350 351 303 4 205 285 260 182 173 174 177 181 190 193
335 330 322 312 299 289 289 289 292 271 240 208 206 259 261 317 246 195 182 146 144 162 249 296 233 44 210 348 333 33 331 328 325 268 256 217 283 219 178 195 187 186 192 192 207
332 328 320 311 294 277 274 278 313 161 168 210 258 262 237 188 192 127 170 153 117 120 130 137 81 207 138 326 315 316 321 317 314 311 272 270 265 252 193 200 201 194 195 198 212
333 325 320 316 283 237 231 147 168 168 216 212 173 276 2 330 191 130 156 142 92 95 153 63 233 248 285 286 275 289 290 302 300 311 279 284 282 286 220 203 206 201 206 215 217
334 327 327 309 223 171 174 218 270 2 254 223 251 280 252 285 139 122 169 157 180 172 153 199 248 276 251 250 259 283 294 310 305 308 271 321 307 330 235 213 204 207 213 219 215
335 327 321 283 154 150 221 230 118 42 253 147 190 217 239 180 188 172 178 148 148 158 180 242 243 133 276 276 266 275 268 309 313 321 95 322 294 352 42 230 214 226 227 211 211
334 328 315 160 166 161 224 193 250 227 310 135 198 165 148 216 143 126 173 152 135 211 179 272 257 242 248 253 234 283 201 297 321 330 341 355 309 356 339 304 198 202 200 199 201
334 327 204 196 76 198 52 303 198 219 133 129 143 133 139 210 132 161 236 125 203 179 199 237 232 216 237 241 188 295 341 349 340 326 294 18 296 6 324 1 245 202 202 206 202
328 281 176 193 240 259 315 143 187 234 96 135 129 150 155 172 107 116 160 91 98 214 234 261 232 257 252 193 217 280 294 71 90 321 277 37 321 14 7 347 343 43 205 201 204
333 209 175 180 93 339 255 188 207 337 343 155 155 164 152 148 116 161 173 191 208 209 245 288 245 233 217 262 176 205 210 270 264 230 352 33 273 10 0 347 320 319 259 210 202
9 145 230 250 304 323 197 193 207 347 204 96 118 137 175 152 144 152 171 202 223 212 295 310 173 176 159 237 321 171 223 214 253 329 331 224 322 48 20 30 355 340 345 213 209
136 195 247 264 209 265 218 210 328 220 330 83 135 144 161 173 171 175 204 228 227 201 217 213 254 253 213 205 232 130 213 20 121 104 254 351 277 235 7 20 20 11 8 23 213
204 197 44 41 170 236 229 263 256 238 294 204 170 201 174 160 178 201 172 144 243 210 222 198 272 215 111 150 83 263 132 188 206 212 269 178 282 328 351 353 359 11 12 7 352
226 143 20 135 193 155 220 251 268 258 244 210 146 123 109 136 165 174 153 109 344 187 205 191 244 184 270 198 215 159 186 79 121 314 267 272 136 10 350 356 354 4 2 356 344
294 113 69 211 183 359 212 236 295 339 2 240 87 84 107 87 119 133 123 32 357 218 155 190 221 259 286 93 279 260 130 196 248 184 68 315 167 81 46 21 11 9 6 2 357
51 95 140 277 195 194 288 277 285 0 29 11 77 33 61 95 116 141 135 89 11 85 113 168 217 268 184 160 144 176 98 106 100 142 196 244 177 111 42 36 29 17 11 12 4
272 128 127 75 4 94 358 354 314 34 63 51 71 119 110 82 35 136 124 58 356 63 55 208 197 261 264 338 23 186 185 169 244 218 201 247 290 91 12 12 15 15 14 15 14
5 69 359 167 154 133 246 4 323 22 49 29 65 52 70 118 84 82 65 332 68 5 56 324 256 212 269 301 295 80 342 281 226 316 254 10 243 21 3 356 357 5 8 14 17
14 347 6 57 277 167 149 139 21 74 354 42 111 72 69 116 50 143 29 233 307 16 5 18 223 206 219 218 348 147 49 107 57 41 218 274 196 5 336 337 349 357 2 3 3
18 22 291 25 92 185 143 139 19 247 74 48 143 135 133 71 6 337 286 343 309 278 192 247 174 184 221 46 168 215 53 61 94 69 318 253 25 347 345 343 336 331 349 1 356